Fremont, NE

12:04 AM CDT on June 24, 2017 (GMT -0500)
Fremont Municipal

Weather History for KFET - March, 2014

Change the Weather History Date:

Tuesday, March 18, 2014

  Actual Average Record
Temperature  
Mean Temperature 42 °F -  
Max Temperature 54 °F 50 °F 89 °F (1997)
Min Temperature 31 °F 30 °F 3 °F (1960)
Degree Days  
Heating Degree Days 24    
Moisture  
Dew Point 31 °F    
Average Humidity 65    
Maximum Humidity 100    
Minimum Humidity 42    
Precipitation  
Precipitation 0.01 in - - ()
Sea Level Pressure  
Sea Level Pressure 29.52 in    
Wind  
Wind Speed 13 mph (ENE)    
Max Wind Speed 23 mph    
Max Gust Speed 30 mph    
Visibility 8 miles    
Events Snow    
Averages and records for this station are not official NWS values.
T = Trace of Precipitation, MM = Missing Value Source: NWS Daily Summary

Daily Weather History Graph

Daily Weather History Graph

Search for Another Location

Airport or City:

Trip Planner

Search our weather history database for the weather conditions in past years. The results will help you decide how hot, cold, wet, or windy it might be!

Date:

Astronomy

Mar. 18, 2014 Rise Set
Actual Time 7:32 AM CDT 7:36 PM CDT
Civil Twilight 7:05 AM CDT 8:03 PM CDT
Nautical Twilight 6:32 AM CDT 8:36 PM CDT
Astronomical Twilight 6:00 AM CDT 9:08 PM CDT
Moon 9:56 PM CDT (3/18) 8:21 AM CDT (3/18)
Length of Visible Light 12h 58m
Length of Day
12h 03m
Waning Gibbous, 96% of the Moon is Illuminated
Mar 18
Waning Gibbous
Mar 23
Last Quarter
Mar 30
New
Apr 7
First Quarter
Apr 15
Full

Hourly Weather History & Observations

Time (CDT) Temp. Windchill Dew Point Humidity Pressure Visibility Wind Dir Wind Speed Gust Speed Precip Events Conditions
12:15 AM 47.3 °F - 30.2 °F 52% 29.43 in 10.0 mi SSE 17.3 mph 21.9 mph N/A   Clear
12:35 AM 46.6 °F - 30.7 °F 54% 29.42 in 10.0 mi SSE 17.3 mph 24.2 mph N/A   Clear
12:55 AM 46.0 °F 38.8 °F 31.1 °F 56% 29.42 in 10.0 mi SSE 18.4 mph 25.3 mph N/A   Clear
1:15 AM 45.5 °F 38.3 °F 31.1 °F 57% 29.42 in 10.0 mi SSE 17.3 mph 24.2 mph N/A   Clear
1:35 AM 44.8 °F 37.1 °F 30.9 °F 58% 29.42 in 10.0 mi SSE 18.4 mph 23.0 mph N/A   Clear
1:55 AM 44.6 °F 37.8 °F 30.9 °F 59% 29.42 in 10.0 mi SE 15.0 mph 19.6 mph N/A   Clear
2:15 AM 43.9 °F 37.5 °F 30.9 °F 60% 29.42 in 10.0 mi SE 12.7 mph 18.4 mph N/A   Clear
2:35 AM 43.2 °F 36.2 °F 30.7 °F 62% 29.43 in 10.0 mi SSE 13.8 mph 21.9 mph N/A   Clear
2:55 AM 42.8 °F 36.6 °F 30.9 °F 63% 29.42 in 10.0 mi SSE 11.5 mph - N/A   Clear
3:15 AM 42.6 °F 34.9 °F 30.6 °F 62% 29.41 in 10.0 mi SE 16.1 mph 19.6 mph N/A   Clear
3:35 AM 42.3 °F 34.4 °F 30.2 °F 62% 29.41 in 10.0 mi SE 16.1 mph 21.9 mph N/A   Clear
3:55 AM 41.2 °F 33.7 °F 29.8 °F 64% 29.41 in 10.0 mi SE 13.8 mph - N/A   Clear
4:15 AM 40.5 °F 34.6 °F 29.5 °F 65% 29.42 in 10.0 mi SSE 9.2 mph - N/A   Clear
4:35 AM 39.7 °F 33.7 °F 29.3 °F 66% 29.41 in 10.0 mi SE 9.2 mph - N/A   Clear
4:55 AM 38.8 °F 33.8 °F 29.1 °F 68% 29.42 in 10.0 mi SE 6.9 mph - N/A   Clear
5:15 AM 39.2 °F 35.0 °F 29.3 °F 68% 29.42 in 10.0 mi SE 5.8 mph - N/A   Clear
5:35 AM 38.3 °F 34.8 °F 29.3 °F 70% 29.43 in 10.0 mi SE 4.6 mph - N/A   Clear
5:55 AM 36.9 °F - 28.6 °F 72% 29.43 in 10.0 mi Calm Calm - N/A   Clear
6:15 AM 37.8 °F 34.2 °F 29.5 °F 72% 29.42 in 10.0 mi East 4.6 mph - N/A   Clear
6:35 AM 37.9 °F 32.7 °F 29.8 °F 73% 29.42 in 10.0 mi East 6.9 mph - N/A   Clear
6:55 AM 38.7 °F 34.3 °F 29.1 °F 69% 29.42 in 10.0 mi ESE 5.8 mph - N/A   Clear
7:15 AM 39.2 °F 34.2 °F 29.1 °F 67% 29.43 in 10.0 mi ESE 6.9 mph - N/A   Mostly Cloudy
7:35 AM 39.2 °F 34.2 °F 28.9 °F 67% 29.43 in 10.0 mi ESE 6.9 mph - N/A   Mostly Cloudy
7:55 AM 38.3 °F 32.5 °F 28.4 °F 68% 29.44 in 10.0 mi ESE 8.1 mph - N/A   Scattered Clouds
8:15 AM 38.7 °F 31.8 °F 28.4 °F 67% 29.43 in 10.0 mi ESE 10.4 mph - N/A   Clear
8:35 AM 40.1 °F 33.6 °F 28.4 °F 63% 29.43 in 10.0 mi ESE 10.4 mph - N/A   Clear
8:55 AM 41.2 °F 35.0 °F 28.4 °F 60% 29.44 in 10.0 mi ESE 10.4 mph - N/A   Clear
9:15 AM 41.5 °F 35.4 °F 28.2 °F 59% 29.44 in 10.0 mi ESE 10.4 mph - N/A   Clear
9:35 AM 42.8 °F 37.0 °F 28.8 °F 58% 29.44 in 10.0 mi ESE 10.4 mph - N/A   Clear
9:55 AM 44.2 °F 38.4 °F 28.9 °F 55% 29.44 in 10.0 mi SE 11.5 mph - N/A   Clear
10:15 AM 45.3 °F 39.7 °F 29.3 °F 54% 29.45 in 10.0 mi SE 11.5 mph - N/A   Clear
10:35 AM 46.0 °F 41.4 °F 29.7 °F 53% 29.45 in 10.0 mi ESE 9.2 mph - N/A   Clear
10:55 AM 47.1 °F - 30.0 °F 51% 29.45 in 10.0 mi SE 10.4 mph - N/A   Clear
11:15 AM 48.6 °F - 29.8 °F 48% 29.45 in 10.0 mi SE 9.2 mph - N/A   Clear
11:35 AM 48.6 °F - 29.8 °F 48% 29.45 in 10.0 mi SE 8.1 mph - N/A   Clear
11:55 AM 50.5 °F - 30.6 °F 46% 29.45 in 10.0 mi SE 5.8 mph - N/A   Clear
12:15 PM 50.4 °F - 29.8 °F 45% 29.45 in 10.0 mi East 4.6 mph - N/A   Clear
12:35 PM 51.3 °F - 29.8 °F 44% 29.46 in 10.0 mi Calm Calm - N/A   Clear
12:55 PM 52.2 °F - 30.0 °F 43% 29.46 in 10.0 mi Calm Calm - N/A   Clear
1:15 PM 51.8 °F - 29.8 °F 43% 29.46 in 10.0 mi NE 6.9 mph - N/A   Clear
1:35 PM 51.8 °F - 30.0 °F 43% 29.46 in 10.0 mi Calm Calm - N/A   Clear
1:55 PM 52.0 °F - 30.0 °F 43% 29.46 in 10.0 mi North 6.9 mph - N/A   Clear
2:15 PM 52.2 °F - 30.4 °F 43% 29.47 in 10.0 mi Calm Calm - N/A   Scattered Clouds
2:35 PM 52.7 °F - 30.2 °F 42% 29.48 in 10.0 mi North 5.8 mph - N/A   Mostly Cloudy
2:55 PM 52.3 °F - 30.2 °F 43% 29.48 in 10.0 mi NNW 5.8 mph - N/A   Overcast
3:15 PM 51.6 °F - 30.0 °F 44% 29.49 in 10.0 mi NNW 8.1 mph 17.3 mph N/A   Overcast
3:35 PM 51.6 °F - 29.8 °F 43% 29.49 in 10.0 mi NNW 12.7 mph 21.9 mph N/A   Overcast
3:55 PM 51.3 °F - 29.7 °F 44% 29.50 in 10.0 mi North 10.4 mph 17.3 mph N/A   Overcast
4:15 PM 51.4 °F - 29.8 °F 44% 29.51 in 10.0 mi North 11.5 mph - N/A   Overcast
4:35 PM 51.8 °F - 29.7 °F 43% 29.51 in 10.0 mi North 10.4 mph - N/A   Overcast
4:55 PM 50.9 °F - 29.7 °F 44% 29.52 in 10.0 mi North 8.1 mph - N/A   Overcast
5:15 PM 46.4 °F 39.5 °F 33.8 °F 62% 29.54 in 10.0 mi NNW 17.3 mph 28.8 mph N/A   Overcast
5:35 PM 44.8 °F 37.1 °F 33.8 °F 65% 29.55 in 10.0 mi NNW 18.4 mph 29.9 mph N/A   Overcast
5:55 PM 44.1 °F 36.5 °F 33.8 °F 67% 29.57 in 10.0 mi North 17.3 mph 25.3 mph N/A   Overcast
6:15 PM 43.5 °F 35.2 °F 33.4 °F 68% 29.59 in 10.0 mi NNW 19.6 mph 27.6 mph N/A   Overcast
6:35 PM 42.3 °F 34.4 °F 32.9 °F 69% 29.61 in 10.0 mi NNW 16.1 mph 28.8 mph N/A   Overcast
6:55 PM 39.9 °F 30.2 °F 32.2 °F 74% 29.64 in 10.0 mi NNW 20.7 mph 29.9 mph N/A   Light Drizzle
7:15 PM 37.8 °F 26.8 °F 32.4 °F 81% 29.66 in 10.0 mi NNW 23.0 mph 27.6 mph N/A   Light Drizzle
7:35 PM 36.1 °F 25.5 °F 32.5 °F 87% 29.67 in 7.0 mi NNW 19.6 mph 27.6 mph N/A   Light Drizzle
7:55 PM 34.5 °F 23.4 °F 33.1 °F 94% 29.69 in 5.0 mi NNW 19.6 mph 25.3 mph N/A Snow Light Snow
8:15 PM 33.8 °F 23.2 °F 33.4 °F 99% 29.71 in 3.0 mi NNW 17.3 mph 23.0 mph N/A Snow Light Snow
8:35 PM 33.4 °F 23.5 °F 33.4 °F 100% 29.73 in 2.0 mi NNW 15.0 mph 20.7 mph N/A Snow Light Snow
8:55 PM 33.1 °F 23.4 °F 33.1 °F 100% 29.75 in 1.8 mi NNW 13.8 mph 24.2 mph N/A Snow Light Snow
9:15 PM 32.9 °F 22.0 °F 32.9 °F 100% 29.77 in 1.5 mi NNW 17.3 mph 24.2 mph N/A Snow Light Snow
9:35 PM 32.4 °F 21.7 °F 32.4 °F 100% 29.78 in 1.2 mi NW 16.1 mph 23.0 mph 0.01 in Snow Light Snow
9:55 PM 32.0 °F 20.1 °F 32.0 °F 100% 29.79 in 1.5 mi NNW 19.6 mph 26.5 mph 0.01 in Snow Light Snow
10:15 PM 32.0 °F 20.1 °F 32.0 °F 100% 29.80 in 1.5 mi NNW 19.6 mph 26.5 mph N/A Snow Light Snow
10:35 PM 31.8 °F 19.3 °F 31.8 °F 100% 29.81 in 1.2 mi NNW 21.9 mph 26.5 mph N/A Snow Light Snow
10:55 PM 31.6 °F 19.7 °F 31.6 °F 100% 29.82 in 1.2 mi NNW 19.6 mph 27.6 mph N/A Snow Light Snow
11:15 PM 31.8 °F 19.6 °F 31.8 °F 100% 29.83 in 2.0 mi NNW 20.7 mph - N/A Snow Light Snow
11:35 PM 32.0 °F 20.5 °F 32.0 °F 100% 29.83 in 2.5 mi NW 18.4 mph 26.5 mph N/A Snow Light Snow
11:55 PM 32.0 °F 20.1 °F 32.0 °F 100% 29.84 in 2.5 mi NNW 19.6 mph 26.5 mph N/A Snow Light Snow